Location: Bats
(43.6587°N, 0.4584°W)
Time: 06:15:21
(UTC+00:00)

SKYMED 2 - Pass Details

Date: 12 January 2026
Orbit: 621 x 624 km, 97.9° (Epoch: 10 February)

Event Time Altitude Azimuth Distance (km) Brightness Sun altitude
Exits shadow 18:32:56 - 7° (N) 2,571 6.5 -18.7°
Reaches altitude 10° 18:34:20 10° 4° (N) 2,001 6.0 -18.9°
Maximum altitude 18:38:34 53° 287° (WNW) 764 4.3 -19.7°
Drops below altitude 10° 18:42:47 10° 211° (SSW) 1,985 6.7 -20.4°
Sets 18:44:59 0° 206° (SSW) 2,887 7.5 -20.8°
